Hourly Weather La Orotava

Today, 4 July, Saturday

Time Temperature Precipitation Wind Pressure Humidity
00:00 +24°C° 0 mm 7 mps 710 mmHg 48%
01:00 +24°C° 0 mm 7 mps 709 mmHg 48%
02:00 +24°C° 0 mm 7 mps 709 mmHg 49%
03:00 +24°C° 0 mm 7 mps 709 mmHg 52%
04:00 +23°C° 0 mm 8 mps 709 mmHg 55%
05:00 +22°C° 0 mm 8 mps 709 mmHg 56%
06:00 +24°C° 0 mm 8 mps 709 mmHg 51%
07:00 +27°C° 0 mm 8 mps 710 mmHg 45%
08:00 +28°C° 0 mm 8 mps 710 mmHg 40%
09:00 +29°C° 0 mm 8 mps 710 mmHg 40%
10:00 +31°C° 0 mm 8 mps 710 mmHg 40%
11:00 +31°C° 0 mm 8 mps 710 mmHg 40%
12:00 +31°C° 0 mm 8 mps 710 mmHg 41%
13:00 +31°C° 0 mm 8 mps 710 mmHg 42%
14:00 +30°C° 0 mm 7 mps 710 mmHg 44%
15:00 +30°C° 0 mm 7 mps 709 mmHg 45%
16:00 +29°C° 0 mm 7 mps 709 mmHg 47%
17:00 +28°C° 0 mm 7 mps 709 mmHg 49%
18:00 +28°C° 0 mm 6 mps 709 mmHg 50%
19:00 +27°C° 0 mm 6 mps 709 mmHg 52%
20:00 +26°C° 0 mm 6 mps 709 mmHg 53%
21:00 +26°C° 0 mm 6 mps 709 mmHg 52%
22:00 +26°C° 0 mm 6 mps 709 mmHg 51%
23:00 +26°C° 0 mm 6 mps 709 mmHg 49%

Tomorrow, 5 July, Sunday

Time Temperature Precipitation Wind Pressure Humidity
00:00 +24°C° 0 mm 6 mps 708 mmHg 49%
01:00 +24°C° 0 mm 6 mps 708 mmHg 50%
02:00 +24°C° 0 mm 6 mps 707 mmHg 50%
03:00 +24°C° 0 mm 6 mps 707 mmHg 49%
04:00 +25°C° 0 mm 5 mps 707 mmHg 48%
05:00 +25°C° 0 mm 5 mps 707 mmHg 47%
06:00 +26°C° 0 mm 5 mps 708 mmHg 43%
07:00 +27°C° 0 mm 5 mps 708 mmHg 39%
08:00 +28°C° 0 mm 5 mps 708 mmHg 36%
09:00 +30°C° 0 mm 5 mps 708 mmHg 33%
10:00 +32°C° 0 mm 5 mps 709 mmHg 31%
11:00 +34°C° 0 mm 5 mps 709 mmHg 29%
12:00 +34°C° 0 mm 5 mps 708 mmHg 29%
13:00 +34°C° 0 mm 5 mps 708 mmHg 30%
14:00 +34°C° 0 mm 5 mps 708 mmHg 31%
15:00 +34°C° 0 mm 5 mps 707 mmHg 31%
16:00 +34°C° 0 mm 5 mps 707 mmHg 31%
17:00 +34°C° 0 mm 5 mps 707 mmHg 31%
18:00 +32°C° 0 mm 5 mps 707 mmHg 33%
19:00 +30°C° 0 mm 5 mps 707 mmHg 36%
20:00 +29°C° 0 mm 4 mps 707 mmHg 38%
21:00 +28°C° 0 mm 5 mps 707 mmHg 38%
22:00 +28°C° 0 mm 5 mps 707 mmHg 37%
23:00 +28°C° 0 mm 5 mps 707 mmHg 37%

Day after tomorrow, 6 July, Monday

Time Temperature Precipitation Wind Pressure Humidity
00:00 +28°C° 0 mm 5 mps 707 mmHg 35%
01:00 +27°C° 0 mm 5 mps 706 mmHg 34%
02:00 +27°C° 0 mm 5 mps 706 mmHg 32%
03:00 +27°C° 0 mm 5 mps 706 mmHg 30%
04:00 +27°C° 0 mm 5 mps 706 mmHg 28%
05:00 +27°C° 0 mm 4 mps 705 mmHg 26%
06:00 +29°C° 0 mm 5 mps 706 mmHg 24%
07:00 +32°C° 0 mm 5 mps 706 mmHg 21%
08:00 +35°C° 0 mm 5 mps 706 mmHg 18%
09:00 +36°C° 0 mm 5 mps 707 mmHg 18%
10:00 +37°C° 0 mm 5 mps 707 mmHg 19%
11:00 +39°C° 0 mm 6 mps 707 mmHg 19%
12:00 +39°C° 0 mm 6 mps 707 mmHg 19%
13:00 +40°C° 0 mm 6 mps 707 mmHg 19%
14:00 +40°C° 0 mm 6 mps 706 mmHg 19%
15:00 +39°C° 0 mm 5 mps 706 mmHg 21%
16:00 +37°C° 0 mm 5 mps 706 mmHg 23%
17:00 +36°C° 0 mm 5 mps 705 mmHg 25%
18:00 +34°C° 0 mm 4 mps 706 mmHg 29%
19:00 +33°C° 0 mm 4 mps 706 mmHg 33%
20:00 +30°C° 0 mm 4 mps 706 mmHg 37%
21:00 +30°C° 0 mm 4 mps 706 mmHg 35%
22:00 +30°C° 0 mm 4 mps 706 mmHg 33%
23:00 +30°C° 0 mm 4 mps 706 mmHg 31%

7 July, Tuesday

Time Temperature Precipitation Wind Pressure Humidity
00:00 +29°C° 0 mm 4 mps 705 mmHg 30%
01:00 +29°C° 0 mm 4 mps 705 mmHg 29%
02:00 +28°C° 0 mm 4 mps 705 mmHg 28%
03:00 +28°C° 0 mm 4 mps 705 mmHg 27%
04:00 +28°C° 0 mm 4 mps 705 mmHg 26%
05:00 +28°C° 0 mm 4 mps 705 mmHg 25%
06:00 +30°C° 0 mm 4 mps 705 mmHg 23%
07:00 +34°C° 0 mm 4 mps 706 mmHg 21%
08:00 +36°C° 0 mm 5 mps 706 mmHg 19%
09:00 +37°C° 0 mm 5 mps 706 mmHg 19%
10:00 +39°C° 0 mm 5 mps 707 mmHg 19%
11:00 +40°C° 0 mm 5 mps 707 mmHg 20%
12:00 +40°C° 0 mm 5 mps 707 mmHg 20%
13:00 +40°C° 0 mm 5 mps 707 mmHg 20%
14:00 +40°C° 0 mm 5 mps 706 mmHg 21%
15:00 +40°C° 0 mm 5 mps 706 mmHg 22%
16:00 +39°C° 0 mm 5 mps 706 mmHg 23%
17:00 +37°C° 0 mm 5 mps 706 mmHg 24%
18:00 +36°C° 0 mm 5 mps 706 mmHg 25%
19:00 +34°C° 0 mm 5 mps 707 mmHg 26%
20:00 +33°C° 0 mm 5 mps 707 mmHg 28%
21:00 +33°C° 0 mm 5 mps 707 mmHg 26%
22:00 +32°C° 0 mm 5 mps 707 mmHg 24%
23:00 +32°C° 0 mm 5 mps 707 mmHg 23%

8 July, Wednesday

Time Temperature Precipitation Wind Pressure Humidity
00:00 +32°C° 0 mm 5 mps 707 mmHg 22%
01:00 +30°C° 0 mm 5 mps 707 mmHg 22%
02:00 +30°C° 0 mm 5 mps 706 mmHg 21%
03:00 +29°C° 0 mm 5 mps 707 mmHg 21%
04:00 +29°C° 0 mm 5 mps 707 mmHg 21%
05:00 +29°C° 0 mm 5 mps 707 mmHg 21%
06:00 +32°C° 0 mm 5 mps 707 mmHg 19%
07:00 +34°C° 0 mm 6 mps 708 mmHg 18%
08:00 +36°C° 0 mm 6 mps 708 mmHg 16%
09:00 +38°C° 0 mm 6 mps 708 mmHg 16%
10:00 +39°C° 0 mm 6 mps 709 mmHg 16%
11:00 +39°C° 0 mm 6 mps 709 mmHg 17%
12:00 +39°C° 0 mm 6 mps 709 mmHg 17%
13:00 +39°C° 0 mm 6 mps 709 mmHg 17%
14:00 +39°C° 0 mm 6 mps 708 mmHg 17%
15:00 +39°C° 0 mm 6 mps 708 mmHg 18%
16:00 +38°C° 0 mm 6 mps 708 mmHg 19%
17:00 +36°C° 0 mm 6 mps 708 mmHg 20%
18:00 +35°C° 0 mm 6 mps 708 mmHg 20%
19:00 +34°C° 0 mm 6 mps 709 mmHg 19%
20:00 +32°C° 0 mm 6 mps 709 mmHg 19%
21:00 +32°C° 0 mm 6 mps 709 mmHg 19%
22:00 +32°C° 0 mm 6 mps 709 mmHg 19%
23:00 +30°C° 0 mm 6 mps 709 mmHg 19%

9 July, Thursday

Time Temperature Precipitation Wind Pressure Humidity
00:00 +30°C° 0 mm 6 mps 709 mmHg 19%
01:00 +30°C° 0 mm 6 mps 708 mmHg 18%
02:00 +30°C° 0 mm 6 mps 708 mmHg 18%
03:00 +30°C° 0 mm 6 mps 708 mmHg 18%
04:00 +29°C° 0 mm 6 mps 708 mmHg 17%
05:00 +29°C° 0 mm 6 mps 708 mmHg 17%
06:00 +30°C° 0 mm 7 mps 708 mmHg 17%
07:00 +33°C° 0 mm 7 mps 709 mmHg 16%
08:00 +34°C° 0 mm 7 mps 709 mmHg 16%
09:00 +35°C° 0 mm 7 mps 709 mmHg 15%
10:00 +35°C° 0 mm 7 mps 710 mmHg 15%
11:00 +36°C° 0 mm 7 mps 710 mmHg 15%
12:00 +36°C° 0 mm 7 mps 710 mmHg 15%
13:00 +35°C° 0 mm 7 mps 709 mmHg 16%
14:00 +35°C° 0 mm 7 mps 709 mmHg 17%
15:00 +34°C° 0 mm 7 mps 709 mmHg 18%
16:00 +33°C° 0 mm 6 mps 709 mmHg 20%
17:00 +32°C° 0 mm 6 mps 708 mmHg 22%
18:00 +29°C° 0 mm 6 mps 708 mmHg 23%
19:00 +28°C° 0 mm 6 mps 708 mmHg 25%
20:00 +26°C° 0 mm 6 mps 709 mmHg 26%
21:00 +26°C° 0 mm 6 mps 708 mmHg 25%
22:00 +26°C° 0 mm 6 mps 708 mmHg 24%
23:00 +26°C° 0 mm 6 mps 708 mmHg 22%
Show more